GW4304 Weather Reports


time (UTC)temp
C
wind
direction
speed
KPH
gust
KPH
rain 1hr
cm
rain 24hr
cm
rain mn
cm
humidity
%
barometer
mb
20260503053504 21 344 0.0 3.2 0.00 1.12 0.00 90 1015.6
20260503053004 21 335 0.0 3.2 0.00 1.12 0.00 90 1015.5
20260503052504 21 303 0.0 3.2 0.00 1.12 0.00 90 1015.4
20260503052004 21 317 0.0 3.2 0.00 1.12 0.00 90 1015.7
20260503051504 21 341 0.0 3.2 0.00 1.12 0.00 90 1015.8
20260503051025 21 345 0.0 3.2 0.00 1.12 0.00 90 1015.8
20260503050504 21 343 0.0 3.2 0.00 1.12 0.00 90 1015.8
20260503050025 21 324 0.0 3.2 0.00 1.12 0.00 90 1015.9
20260503045504 21 303 0.0 3.2 0.00 1.12 0.00 90 1016.1
20260503045025 21 279 0.0 3.2 0.00 1.12 0.00 90 1015.8
20260503044504 21 302 0.0 3.2 0.00 1.12 0.00 90 1015.9
20260503044004 21 316 0.0 3.2 0.00 1.12 0.00 90 1015.8
20260503043525 21 286 0.0 3.2 0.00 1.12 0.00 90 1016.1
20260503043025 21 224 0.0 3.2 0.00 1.12 0.00 90 1016.0
20260503042505 21 222 0.0 3.2 0.00 1.12 0.00 90 1016.1
20260503042004 21 278 0.0 3.2 0.00 1.12 0.00 90 1015.9
20260503041504 21 352 1.6 4.8 0.00 1.12 0.00 90 1015.9
20260503041004 21 14 1.6 6.4 0.00 1.12 0.00 90 1015.8
20260503040525 21 14 1.6 6.4 0.00 1.12 0.00 90 1015.8
20260503040004 21 360 1.6 4.8 0.00 1.12 0.00 90 1015.7
20260503035504 21 2 0.0 3.2 0.00 1.12 1.12 90 1015.8
20260503035004 21 12 0.0 3.2 0.00 1.12 1.12 90 1015.7
20260503034504 21 342 0.0 3.2 0.00 1.12 1.12 90 1015.8
20260503034004 21 311 0.0 3.2 0.00 1.12 1.12 91 1015.9
20260503033504 21 310 0.0 3.2 0.00 1.12 1.12 91 1015.6
20260503033004 22 318 0.0 3.2 0.00 1.12 1.12 91 1015.3
20260503032525 22 341 0.0 3.2 0.00 1.12 1.12 91 1015.2
20260503032004 22 348 0.0 3.2 0.00 1.12 1.12 91 1015.0
20260503031504 22 297 0.0 3.2 0.00 1.12 1.12 91 1015.0
20260503031004 22 316 0.0 1.6 0.00 1.12 1.12 91 1015.0
20260503030504 22 338 0.0 3.2 0.00 1.12 1.12 91 1014.8
20260503030004 22 346 0.0 3.2 0.00 1.12 1.12 91 1014.9
20260503025504 22 346 1.6 3.2 0.00 1.12 1.12 91 1014.9
20260503025025 22 344 0.0 3.2 0.03 1.12 1.12 91 1015.0
20260503024504 22 281 0.0 4.8 0.03 1.12 1.12 91 1014.5
20260503024025 22 230 0.0 4.8 0.03 1.12 1.12 91 1014.4
20260503023504 22 241 1.6 4.8 0.03 1.12 1.12 91 1014.9
20260503023004 22 281 1.6 3.2 0.03 1.12 1.12 91 1014.6
20260503022504 22 322 0.0 3.2 0.03 1.12 1.12 90 1014.6
20260503022004 22 350 1.6 4.8 0.05 1.12 1.12 90 1014.2
20260503021525 22 353 1.6 6.4 0.05 1.12 1.12 90 1014.3
20260503021004 22 359 1.6 6.4 0.05 1.12 1.12 90 1014.0
20260503020504 22 346 1.6 4.8 0.05 1.12 1.12 90 1014.2
20260503020004 22 360 1.6 4.8 0.05 1.12 1.12 90 1014.7
20260503015504 22 2 1.6 4.8 0.05 1.09 1.09 90 1014.6
20260503015004 22 333 1.6 4.8 0.05 1.09 1.09 90 1014.6
20260503014504 22 355 1.6 4.8 0.05 1.09 1.09 90 1014.8
20260503014004 22 14 1.6 4.8 0.05 1.09 1.09 90 1014.6
20260503013525 22 12 1.6 4.8 0.05 1.09 1.09 90 1014.8
20260503013004 22 357 1.6 4.8 0.05 1.09 1.09 90 1014.7
20260503012525 22 348 1.6 6.4 0.08 1.09 1.09 90 1014.4
20260503012004 22 10 1.6 6.4 0.05 1.07 1.07 90 1014.2
20260503011504 22 9 3.2 8.0 0.05 1.07 1.07 90 1013.9
20260503011004 22 16 4.8 9.7 0.08 1.07 1.07 90 1013.7
20260503010504 22 21 4.8 9.7 0.08 1.07 1.07 90 1013.0
20260503010026 22 21 4.8 9.7 0.08 1.07 1.07 90 1013.1
20260503005525 22 18 4.8 9.7 0.08 1.07 1.07 90 1013.3
20260503005004 22 14 3.2 8.0 0.08 1.04 1.04 90 1013.5
20260503004505 22 7 1.6 4.8 0.05 1.04 1.04 90 1013.6
20260503004004 22 17 3.2 6.4 0.08 1.04 1.04 90 1013.5
20260503003504 22 15 1.6 6.4 0.08 1.02 1.02 90 1013.6
20260503003004 22 6 1.6 6.4 0.08 1.02 1.02 90 1013.6
20260503002504 22 16 3.2 6.4 0.08 1.02 1.02 90 1013.5
20260503002004 22 17 1.6 6.4 0.08 1.02 1.02 90 1013.7
20260503001525 22 18 1.6 6.4 0.08 1.02 1.02 90 1013.1
20260503001004 22 14 1.6 4.8 0.05 0.99 0.99 90 1013.1
20260503000504 22 7 1.6 4.8 0.05 0.99 0.99 90 1012.8
20260503000004 22 10 1.6 4.8 0.05 0.99 0.99 90 1012.5
20260502235504 22 8 1.6 3.2 0.05 0.99 0.99 90 1013.2
20260502235004 22 4 0.0 3.2 0.03 0.97 0.97 90 1013.1
20260502234504 22 358 0.0 3.2 0.05 0.97 0.97 90 1013.2
20260502234004 22 6 0.0 1.6 0.03 0.94 0.94 90 1013.1
20260502233504 22 358 0.0 1.6 0.03 0.94 0.94 90 1013.5
20260502233004 22 339 0.0 3.2 0.03 0.94 0.94 90 1013.4
20260502232504 22 349 0.0 3.2 0.05 0.94 0.94 90 1013.5
20260502232004 22 350 0.0 3.2 0.05 0.94 0.94 90 1013.7
20260502231504 22 7 1.6 4.8 0.08 0.94 0.94 90 1013.6
20260502231004 22 21 3.2 6.4 0.08 0.94 0.94 90 1013.6
20260502230504 22 14 3.2 6.4 0.10 0.94 0.94 90 1013.6
20260502230004 22 353 1.6 3.2 0.10 0.94 0.94 90 1013.3
20260502225504 22 341 0.0 1.6 0.10 0.94 0.94 90 1013.2
20260502225004 22 342 0.0 1.6 0.10 0.94 0.94 90 1013.1
20260502224525 22 5 0.0 1.6 0.10 0.91 0.91 90 1013.0
20260502224004 22 195 0.0 3.2 0.10 0.91 0.91 90 1013.1
20260502223504 22 334 0.0 3.2 0.13 0.91 0.91 90 1013.2
20260502223004 23 351 0.0 3.2 0.13 0.91 0.91 90 1012.9
20260502222525 22 347 0.0 3.2 0.13 0.89 0.89 90 1013.3
20260502222004 22 360 0.0 3.2 0.36 0.89 0.89 90 1013.1
20260502221504 22 297 1.6 3.2 0.71 0.86 0.86 89 1013.1
20260502221004 22 265 0.0 3.2 0.86 0.86 0.86 89 1012.8
20260502220504 22 244 0.0 3.2 0.84 0.84 0.84 89 1013.4
20260502220004 22 241 0.0 3.2 0.84 0.84 0.84 89 1013.4
20260502215504 22 246 1.6 3.2 0.84 0.84 0.84 89 1013.2
20260502215004 23 204 1.6 4.8 0.84 0.84 0.84 89 1013.0
20260502214504 22 192 1.6 4.8 0.84 0.84 0.84 89 1013.5
20260502214005 22 200 1.6 6.4 0.84 0.84 0.84 88 1013.1
20260502213504 22 170 3.2 8.0 0.79 0.79 0.79 88 1013.0
20260502213004 22 141 4.8 11.3 0.79 0.79 0.79 87 1013.0
20260502212504 23 140 6.4 11.3 0.79 0.79 0.79 86 1013.1
20260502212004 23 135 6.4 17.7 0.53 0.53 0.56 85 1013.3
20260502211504 25 109 6.4 17.7 0.15 0.15 0.15 81 1013.0
20260502211004 27 83 4.8 16.1 0.00 0.00 0.00 78 1012.1
20260502210526 27 85 4.8 12.9 0.00 0.00 0.00 78 1012.2
20260502210005 27 80 6.4 12.9 0.00 0.00 0.00 77 1012.1
20260502205504 27 85 4.8 9.7 0.00 0.00 0.00 77 1012.1
20260502205004 27 85 4.8 11.3 0.00 0.00 0.00 76 1012.0
20260502204525 27 86 4.8 11.3 0.00 0.00 0.00 76 1012.2
20260502204004 27 98 4.8 8.0 0.00 0.00 0.00 75 1012.1
20260502203525 28 96 4.8 11.3 0.00 0.00 0.00 74 1012.2
20260502203004 28 91 4.8 11.3 0.00 0.00 0.00 74 1011.9
20260502202504 28 85 4.8 11.3 0.00 0.00 0.00 74 1011.9
20260502202004 28 81 4.8 9.7 0.00 0.00 0.00 74 1012.0
20260502201504 28 87 4.8 9.7 0.00 0.00 0.00 73 1011.9
20260502201025 28 96 4.8 9.7 0.00 0.00 0.00 74 1012.2
20260502200504 28 87 4.8 12.9 0.00 0.00 0.00 73 1012.2
20260502200004 28 82 4.8 12.9 0.00 0.00 0.00 72 1012.1
20260502195504 28 84 4.8 11.3 0.00 0.00 0.00 71 1012.3
20260502195004 29 88 4.8 11.3 0.00 0.00 0.00 71 1012.1
20260502194504 29 100 4.8 9.7 0.00 0.00 0.00 70 1012.2
20260502194004 29 96 6.4 12.9 0.00 0.00 0.00 70 1012.4
20260502193525 29 87 6.4 12.9 0.00 0.00 0.00 69 1012.3
20260502193004 29 85 6.4 12.9 0.00 0.00 0.00 69 1012.4
20260502192504 30 89 4.8 11.3 0.00 0.00 0.00 68 1012.4
20260502192004 30 83 6.4 12.9 0.00 0.00 0.00 67 1012.5
20260502191525 30 80 6.4 12.9 0.00 0.00 0.00 66 1012.4
20260502191004 30 91 6.4 12.9 0.00 0.00 0.00 66 1012.7
20260502190504 31 100 4.8 19.3 0.00 0.00 0.00 65 1012.8
20260502190004 30 98 6.4 19.3 0.00 0.00 0.00 64 1012.7
20260502185504 30 87 6.4 20.9 0.00 0.00 0.00 65 1012.5
20260502185004 30 78 6.4 20.9 0.00 0.00 0.00 65 1012.7
20260502184504 30 74 6.4 17.7 0.00 0.00 0.00 65 1012.7
20260502184004 30 73 6.4 17.7 0.00 0.00 0.00 65 1012.8
20260502183504 31 84 4.8 17.7 0.00 0.00 0.00 64 1013.0
20260502183004 31 106 4.8 11.3 0.00 0.00 0.00 65 1013.1
20260502182504 30 112 4.8 11.3 0.00 0.00 0.00 66 1013.1
20260502182004 31 101 6.4 16.1 0.00 0.00 0.00 66 1013.2
20260502181504 30 88 6.4 16.1 0.00 0.00 0.00 65 1013.3
20260502181004 30 80 6.4 19.3 0.00 0.00 0.00 69 1013.6
20260502180504 30 73 6.4 19.3 0.00 0.00 0.00 67 1013.3
20260502170504 30 74 6.4 17.7 0.00 0.00 0.00 70 1013.8
20260502164025 30 82 6.4 16.1 0.00 0.00 0.00 69 1013.8
20260502163504 30 76 6.4 17.7 0.00 0.00 0.00 70 1013.7
20260502163004 30 84 6.4 17.7 0.00 0.00 0.00 69 1013.9
20260502162504 30 93 6.4 14.5 0.00 0.00 0.00 70 1013.8
20260502162004 30 91 6.4 12.9 0.00 0.00 0.00 69 1013.7
20260502161504 30 84 6.4 20.9 0.00 0.00 0.00 70 1013.5
20260502161004 30 73 8.0 20.9 0.00 0.00 0.00 70 1013.6
20260502160503 30 75 8.0 20.9 0.00 0.00 0.00 70 1013.7
20260502152004 30 79 4.8 16.1 0.00 0.00 0.00 69 1013.4
20260502151503 30 64 6.4 27.4 0.00 0.00 0.00 70 1013.6
20260502151025 29 60 6.4 27.4 0.00 0.00 0.00 71 1013.4
20260502150524 29 69 6.4 17.7 0.00 0.00 0.00 71 1013.1
20260502130504 27 58 8.0 24.1 0.00 0.00 0.00 78 1012.3
20260502123504 26 66 6.4 14.5 0.00 0.00 0.00 83 1012.2
20260502123004 26 69 6.4 14.5 0.00 0.00 0.00 84 1012.2
20260502122504 25 68 6.4 14.5 0.00 0.00 0.00 85 1012.2
20260502122025 25 67 6.4 14.5 0.00 0.00 0.00 86 1012.0
20260502121504 25 64 6.4 14.5 0.00 0.00 0.00 87 1012.0
20260502121004 25 65 6.4 12.9 0.00 0.00 0.00 87 1012.1
20260502120504 23 70 6.4 9.7 0.00 0.00 0.00 87 1012.1
20260502115503 23 65 6.4 11.3 0.00 0.00 0.00 87 1011.9
20260502115003 23 69 4.8 9.7 0.00 0.00 0.00 87 1011.8
20260502114025 22 70 4.8 9.7 0.00 0.00 0.00 88 1012.0
20260502113503 22 64 6.4 9.7 0.00 0.00 0.00 88 1011.8
20260502113004 22 58 6.4 9.7 0.00 0.00 0.00 88 1011.9
20260502112504 22 60 6.4 9.7 0.00 0.00 0.00 88 1011.7
20260502112004 22 66 6.4 9.7 0.00 0.00 0.00 89 1011.7
20260502111504 22 66 6.4 9.7 0.00 0.00 0.00 89 1011.8
20260502111004 22 68 6.4 9.7 0.00 0.00 0.00 89 1011.8
20260502110504 21 68 6.4 9.7 0.00 0.00 0.00 89 1011.7
20260502110025 21 75 4.8 9.7 0.00 0.00 0.00 89 1011.8
20260502105525 21 88 3.2 6.4 0.00 0.00 0.00 89 1011.8
20260502105004 21 86 3.2 6.4 0.00 0.00 0.00 89 1012.0
20260502104504 21 77 4.8 8.0 0.00 0.00 0.00 89 1011.8
20260502104003 21 74 4.8 8.0 0.00 0.00 0.00 89 1011.7
20260502103503 21 83 4.8 6.4 0.00 0.00 0.00 88 1011.9
20260502103003 21 87 3.2 6.4 0.00 0.00 0.00 88 1011.8
20260502102504 21 88 4.8 8.0 0.00 0.00 0.00 88 1011.8
20260502102025 21 83 4.8 8.0 0.00 0.00 0.00 88 1012.0
20260502101504 21 79 4.8 8.0 0.00 0.00 0.00 88 1012.0
20260502101004 21 81 4.8 8.0 0.00 0.00 0.00 88 1011.8
20260502100504 21 76 4.8 6.4 0.00 0.00 0.00 88 1012.0
20260502091504 21 86 4.8 6.4 0.00 0.00 0.00 88 1012.1
20260502091003 21 82 4.8 6.4 0.00 0.00 0.00 88 1012.1
20260502090504 20 78 4.8 6.4 0.00 0.00 0.00 88 1012.3
20260502071504 21 95 3.2 4.8 0.00 0.00 0.00 87 1012.5
20260502071003 21 96 3.2 4.8 0.00 0.00 0.00 87 1012.5
20260502070504 21 89 3.2 4.8 0.00 0.00 0.00 87 1012.4
20260502070003 21 85 3.2 4.8 0.00 0.00 0.00 87 1012.3
20260502065503 21 84 3.2 4.8 0.00 0.00 0.00 87 1012.5
20260502065025 21 83 3.2 4.8 0.00 0.00 0.00 87 1012.5
20260502064504 21 83 3.2 4.8 0.00 0.00 0.00 87 1012.4
20260502064003 21 85 3.2 4.8 0.00 0.00 0.00 87 1012.6
20260502063503 21 88 3.2 4.8 0.00 0.00 0.00 87 1012.4
20260502063004 21 90 3.2 4.8 0.00 0.00 0.00 87 1012.6
20260502062503 21 87 3.2 4.8 0.00 0.00 0.00 87 1012.4
20260502062004 21 85 3.2 4.8 0.00 0.00 0.00 86 1012.6
20260502061503 21 87 3.2 4.8 0.00 0.00 0.00 86 1012.6
20260502061003 21 88 3.2 4.8 0.00 0.00 0.00 86 1012.8
20260502060504 21 88 3.2 4.8 0.00 0.00 0.00 86 1012.8
20260502060004 21 87 3.2 4.8 0.00 0.00 0.00 86 1012.8
20260502055503 21 85 3.2 4.8 0.00 0.00 0.00 86 1012.9
20260502055003 21 88 3.2 4.8 0.00 0.00 0.00 86 1012.9
20260502054503 21 91 3.2 4.8 0.00 0.00 0.00 86 1013.0
20260502054024 21 88 3.2 4.8 0.00 0.00 0.00 86 1012.9